ジュエルス-ホルボーセム彗星

C/2005 N1 ( Juels-Holvorcem )

English version
Home page
Updated on April 23, 2006

---------------------------------------------------------------------

・ プロフィール

発見日 2005年7月2日
発見光度 14.6等
発見者 Charles W. Juels (Fountain Hills, AZ), Paulo R. Holvorcem (Campinas, Brazil)

・ 写真集

・ 軌道要素

Epoch 2005 Aug. 18.0 TT = JDT 2453600.5
T 2005 Aug. 22.03996 TT                                 MPC
q   1.1254437            (2000.0)            P               Q
z  +0.0013862      Peri.   80.04415     +0.13771453     -0.98949251
 +/-0.0000381      Node     3.24018     +0.26929563     -0.00538032
e   0.9984399      Incl.   51.18011     +0.95316031     +0.14448398

・ 星図

・ 光度変化

        m1 = 10.0 + 5 logΔ + 11.5 log r

---------------------------------------------------------------------

軌道要素はM.P.E.C. 2005-S06に掲載されたものです。
星図は StellaNavigator Ver.2.0 for Windows (アストロアーツ 編著 / アスキー出版局刊) で作成したものです。
光度グラフはComet for Windowsで作成したものです。

---------------------------------------------------------------------

Copyright(C) Seiichi Yoshida (comet@aerith.net). All rights reserved.